TimeEDT,TemperatureF,Dew PointF,Humidity,Sea Level PressureIn,VisibilityMPH,Wind Direction,Wind SpeedMPH,Gust SpeedMPH,PrecipitationIn,Events,Conditions,WindDirDegrees,DateUTC
12:15 AM,68.4,67.1,96,29.75,7.0,SW,6.9,-,0.02,Rain,Rain,230,2013-11-02 04:15:00
12:35 AM,68.4,67.1,96,29.74,4.0,SW,5.8,-,0.33,Rain,Heavy Rain,220,2013-11-02 04:35:00
12:55 AM,68.2,66.6,95,29.74,5.0,SSW,5.8,-,0.37,Rain,Rain,210,2013-11-02 04:55:00
1:15 AM,68.0,65.8,93,29.75,5.0,SW,8.1,-,0.03,Rain,Heavy Rain,220,2013-11-02 05:15:00
1:35 AM,67.5,66.2,96,29.74,3.0,SW,4.6,-,0.15,Rain,Heavy Rain,230,2013-11-02 05:35:00
1:55 AM,67.1,65.7,95,29.72,5.0,WSW,6.9,-,0.22,Rain,Rain,240,2013-11-02 05:55:00
2:15 AM,66.7,64.6,93,29.73,10.0,SW,5.8,-,N/A,,Overcast,230,2013-11-02 06:15:00
2:35 AM,66.4,64.0,92,29.73,10.0,SW,6.9,-,N/A,,Mostly Cloudy,220,2013-11-02 06:35:00
2:55 AM,66.2,63.9,92,29.74,10.0,WSW,3.5,-,N/A,Rain,Light Rain,250,2013-11-02 06:55:00
3:15 AM,65.8,64.0,94,29.73,10.0,SW,4.6,-,0.01,Rain,Light Rain,230,2013-11-02 07:15:00
3:35 AM,65.7,63.9,94,29.72,10.0,SW,3.5,-,0.01,Rain,Light Rain,230,2013-11-02 07:35:00
3:55 AM,65.3,63.7,94,29.72,10.0,Calm,Calm,-,0.01,,Light Drizzle,0,2013-11-02 07:55:00
4:15 AM,65.3,63.7,94,29.72,10.0,Calm,Calm,-,N/A,Rain,Light Rain,0,2013-11-02 08:15:00
4:35 AM,65.3,63.7,94,29.73,10.0,SW,3.5,-,N/A,,Scattered Clouds,220,2013-11-02 08:35:00
4:55 AM,65.3,63.9,95,29.74,10.0,WSW,3.5,-,N/A,,Mostly Cloudy,240,2013-11-02 08:55:00
5:15 AM,65.3,63.9,95,29.74,10.0,West,3.5,-,N/A,,Overcast,270,2013-11-02 09:15:00
5:35 AM,64.8,62.1,91,29.74,10.0,West,4.6,-,N/A,,Scattered Clouds,260,2013-11-02 09:35:00
5:55 AM,63.9,61.5,92,29.74,10.0,West,3.5,-,N/A,,Clear,270,2013-11-02 09:55:00
6:15 AM,63.5,61.3,93,29.75,10.0,Calm,Calm,-,N/A,,Scattered Clouds,0,2013-11-02 10:15:00
6:35 AM,63.0,60.4,91,29.75,10.0,West,3.5,-,N/A,,Mostly Cloudy,270,2013-11-02 10:35:00
6:55 AM,62.1,59.5,91,29.75,10.0,Calm,Calm,-,N/A,,Scattered Clouds,0,2013-11-02 10:55:00
7:15 AM,61.7,59.7,93,29.76,10.0,Calm,Calm,-,N/A,,Clear,0,2013-11-02 11:15:00
7:35 AM,61.5,59.2,92,29.77,10.0,Calm,Calm,-,N/A,,Scattered Clouds,0,2013-11-02 11:35:00
7:55 AM,61.0,59.2,94,29.77,7.0,Calm,Calm,-,N/A,,Scattered Clouds,0,2013-11-02 11:55:00
8:15 AM,61.3,59.2,93,29.78,10.0,Calm,Calm,-,N/A,,Clear,0,2013-11-02 12:15:00
8:35 AM,61.5,59.2,92,29.78,10.0,Calm,Calm,-,N/A,,Scattered Clouds,0,2013-11-02 12:35:00
8:55 AM,61.9,59.4,91,29.80,10.0,WSW,3.5,-,N/A,,Clear,250,2013-11-02 12:55:00
9:15 AM,61.9,59.5,92,29.78,10.0,WNW,3.5,-,N/A,,Clear,290,2013-11-02 13:15:00
9:35 AM,62.6,59.9,91,29.80,10.0,Calm,Calm,-,N/A,,Scattered Clouds,0,2013-11-02 13:35:00
9:55 AM,63.0,59.9,90,29.80,10.0,West,3.5,-,N/A,,Mostly Cloudy,270,2013-11-02 13:55:00
10:15 AM,63.5,59.9,88,29.81,10.0,Calm,Calm,-,N/A,,Mostly Cloudy,0,2013-11-02 14:15:00
10:35 AM,63.9,60.1,87,29.81,10.0,WSW,3.5,-,N/A,,Mostly Cloudy,240,2013-11-02 14:35:00
10:55 AM,63.7,59.7,87,29.80,10.0,West,3.5,-,N/A,,Mostly Cloudy,280,2013-11-02 14:55:00
11:15 AM,63.9,59.4,85,29.80,10.0,WSW,3.5,-,N/A,,Mostly Cloudy,250,2013-11-02 15:15:00
11:35 AM,64.9,59.5,83,29.81,10.0,West,3.5,-,N/A,,Scattered Clouds,260,2013-11-02 15:35:00
11:55 AM,66.0,59.5,80,29.81,10.0,West,4.6,-,N/A,,Scattered Clouds,260,2013-11-02 15:55:00
1:15 PM,68.4,55.8,64,29.77,10.0,North,3.5,-,N/A,,Clear,10,2013-11-02 17:15:00
1:35 PM,69.6,55.4,61,29.77,10.0,Calm,Calm,-,N/A,,Clear,0,2013-11-02 17:35:00
1:55 PM,69.6,54.9,59,29.77,10.0,Calm,Calm,-,N/A,,Clear,0,2013-11-02 17:55:00
2:15 PM,70.0,53.8,56,29.77,10.0,Calm,Calm,-,N/A,,Clear,0,2013-11-02 18:15:00
2:35 PM,70.3,53.2,55,29.76,10.0,West,3.5,-,N/A,,Clear,270,2013-11-02 18:35:00
2:55 PM,70.0,53.4,56,29.76,10.0,West,5.8,-,N/A,,Clear,260,2013-11-02 18:55:00
3:15 PM,69.8,54.0,57,29.76,10.0,Calm,Calm,-,N/A,,Clear,0,2013-11-02 19:15:00
3:35 PM,69.8,54.1,57,29.75,10.0,West,3.5,-,N/A,,Clear,270,2013-11-02 19:35:00
3:55 PM,69.1,54.0,58,29.75,10.0,West,3.5,-,N/A,,Clear,270,2013-11-02 19:55:00
4:15 PM,69.6,53.8,57,29.75,10.0,Calm,Calm,-,N/A,,Clear,0,2013-11-02 20:15:00
4:35 PM,70.9,54.1,55,29.76,10.0,WSW,5.8,-,N/A,,Clear,250,2013-11-02 20:35:00
4:55 PM,70.5,51.4,51,29.76,10.0,West,5.8,-,N/A,,Clear,270,2013-11-02 20:55:00
5:15 PM,70.0,51.1,51,29.77,10.0,Calm,Calm,-,N/A,,Clear,0,2013-11-02 21:15:00
5:35 PM,69.1,50.5,52,29.78,10.0,Calm,Calm,-,N/A,,Clear,0,2013-11-02 21:35:00
5:55 PM,65.8,52.3,62,29.78,10.0,Calm,Calm,-,N/A,,Clear,0,2013-11-02 21:55:00
6:15 PM,63.7,53.8,70,29.78,10.0,Calm,Calm,-,N/A,,Clear,0,2013-11-02 22:15:00
6:35 PM,61.7,55.2,79,29.80,10.0,Calm,Calm,-,N/A,,Clear,0,2013-11-02 22:35:00
6:55 PM,60.8,54.7,80,29.80,10.0,Calm,Calm,-,N/A,,Clear,0,2013-11-02 22:55:00
7:15 PM,60.3,53.8,79,29.81,10.0,Calm,Calm,-,N/A,,Clear,0,2013-11-02 23:15:00
7:35 PM,60.1,54.0,80,29.82,10.0,Calm,Calm,-,N/A,,Clear,0,2013-11-02 23:35:00
7:55 PM,59.5,53.6,81,29.83,10.0,Calm,Calm,-,N/A,,Clear,0,2013-11-02 23:55:00
8:15 PM,58.1,53.2,84,29.84,10.0,Calm,Calm,-,N/A,,Clear,0,2013-11-03 00:15:00
8:35 PM,57.7,53.2,85,29.85,10.0,Calm,Calm,-,N/A,,Clear,0,2013-11-03 00:35:00
8:55 PM,59.5,51.6,75,29.87,10.0,WNW,4.6,-,N/A,,Scattered Clouds,290,2013-11-03 00:55:00
9:15 PM,60.4,47.8,63,29.88,10.0,WNW,4.6,-,N/A,,Scattered Clouds,290,2013-11-03 01:15:00
9:35 PM,59.7,47.1,63,29.89,10.0,Calm,Calm,-,N/A,,Clear,0,2013-11-03 01:35:00
9:55 PM,58.8,47.1,65,29.90,10.0,Calm,Calm,-,N/A,,Clear,0,2013-11-03 01:55:00
10:15 PM,56.1,49.1,77,29.91,10.0,Calm,Calm,-,N/A,,Scattered Clouds,0,2013-11-03 02:15:00
10:35 PM,54.7,49.1,81,29.91,10.0,Calm,Calm,-,N/A,,Scattered Clouds,0,2013-11-03 02:35:00
10:55 PM,54.1,49.6,85,29.92,10.0,Calm,Calm,-,N/A,,Scattered Clouds,0,2013-11-03 02:55:00
11:15 PM,53.1,49.1,86,29.93,10.0,Calm,Calm,-,N/A,,Clear,0,2013-11-03 03:15:00
11:35 PM,52.5,48.6,86,29.93,10.0,Calm,Calm,-,N/A,,Scattered Clouds,0,2013-11-03 03:35:00
11:55 PM,51.8,48.6,89,29.94,10.0,Calm,Calm,-,N/A,,Scattered Clouds,0,2013-11-03 03:55:00